Regional Weather Roundup
Issued by NWS

Home | Current Version | Previous Version | Graphics & Text | Print | Product List | Glossary On
Versions: 1 2 3 4 5 6 7 8 9 10 11 12 13 14 15 16 17 18 19 20 21 22 23 24 25 26 27 28 29 30 31 32 33 34 35 36 37 38 39 40 41 42 43 44 45 46 47 48 49 50
612
ASUS43 KFSD 101510
RWRSD

WEATHER ROUNDUP FOR SOUTH DAKOTA
NATIONAL WEATHER SERVICE SIOUX FALLS SD
900 AM CST WED FEB 10 2016

NOTE: "FAIR" INDICATES FEW OR NO CLOUDS BELOW 12,000 FEET WITH NO
SIGNIFICANT WEATHER AND/OR OBSTRUCTIONS TO VISIBILITY.


SDZ001>005-009-010-012>017-101600-
NORTHWEST AND NORTH CENTRAL SOUTH DAKOTA

CITY           SKY/WX    TMP DP  RH WIND       PRES   REMARKS
BUFFALO          N/A     42  24  49 NW15      29.81R
FAITH            N/A     39  25  57 W18       29.83S
MOBRIDGE       CLOUDY    23  19  85 SE10      29.83F WCI  12
$$

SDZ012>016-024>037-041>051-057-063-072>074-101600-
SOUTHWEST AND SOUTH CENTRAL SOUTH DAKOTA

CITY           SKY/WX    TMP DP  RH WIND       PRES   REMARKS
RAPID CTY ARPT CLEAR     44  26  49 NW9       29.89S
PIERRE         SUNNY     26  24  92 S5        29.85S WCI  20
CUSTER         CLEAR     49  11  21 NW14G23   29.96F
ELLSWORTH AFB  CLEAR     52  21  29 NW15      29.88S
PHILIP         CLEAR     34  28  79 W13       29.87S WCI  25
PINE RIDGE     CLOUDY    40  24  53 W10       29.97R
SPEARFISH      FAIR      52  18  25 W15G21    29.97R
WINNER         FAIR      34  28  79 W3        29.86F
$$

SDZ004>011-016>023-039-040-101600-
NORTHEAST SOUTH DAKOTA

CITY           SKY/WX    TMP DP  RH WIND       PRES   REMARKS
ABERDEEN       CLOUDY    17  12  80 E10       29.95F WCI   5
WATERTOWN      LGT SNOW  11   5  77 SE9       29.96R WCI  -2
BROOKINGS      LGT SNOW  12   9  87 E12       29.96F FOG     WCI  -2
SISSETON         N/A      8   4  83 SE13      30.04S WCI  -8
$$

SDZ017-020-022-023-036>040-048>070-101600-
SOUTHEAST SOUTH DAKOTA

CITY           SKY/WX    TMP DP  RH WIND       PRES   REMARKS
SIOUX FALLS    FLURRIES  17  14  88 E10       29.97S WCI   5
HURON          CLOUDY    22  17  81 SE10      29.92F WCI  11
CHAMBERLAIN    CLOUDY    24  22  91 SE9       29.87F WCI  15
MITCHELL       CLOUDY    23  19  85 SE12      29.94S WCI  12
YANKTON        CLOUDY    21  18  86 E12       29.94F WCI   9
$$

ABBREVIATIONS USED IN REMARKS
   TC - TEMPERATURE IN CELSIUS
  WCI - WIND CHILL INDEX
   HX - HEAT INDEX
  VSB - VISIBILITY





USA.gov is the U.S. government's official web portal to all federal, state and local government web resources and services.